Location: Plainartige
(45.6866°N, 1.7993°E)
Time: 18:30:35
(UTC+00:00)

Envisat - Pass Details

Date: 25 January 2022
Orbit: 764 x 765 km, 98.2° (Epoch: 19 May)

Event Time Altitude Azimuth Distance (km) Brightness Sun altitude
Rises 04:53:47 0° 13° (NNE) 3,241 6.4 -25.8°
Reaches altitude 10° 04:56:05 10° 13° (NNE) 2,311 5.6 -25.4°
Maximum altitude 05:01:12 90° 294° (WNW) 771 2.9 -24.5°
Drops below altitude 10° 05:06:16 10° 195° (SSW) 2,295 5.3 -23.6°
Sets 05:08:34 0° 196° (SSW) 3,217 6.1 -23.2°
